IW5EFR Vecchia di Pontedera IT current weather conditions

sailwx.info

Wind from 111 at 6 knots gusting 6

Air temperature 3.9° C
Dewpoint -0.3° C

Last reported at 2017-Jan-21 07:42 UTC.
Time now 2017-Jan-21 19:42 UTC

Location: N 43°37' E 010°38'.
View on Google Maps.

See reports from other nearby stations

  
Tides and Currents Weather Stations Pressure Air Temp Water Temp Dewpoint Dewpoint Depression Visibility Wind Speed Wind Dir Waves Ship Positions
date/time (UTC)wind fromknots sea level pressurealtimeterstation pressurevisibilityair tempwater tempwave heightnotes
2017-Jan-21 07:42 111 6 gusting 6 3.9
2017-Jan-21 07:37 150 3 gusting 6 3.3
2017-Jan-21 07:32 153 5 gusting 5 2.8
2017-Jan-21 07:27 153 0 gusting 5 2.8
2017-Jan-21 07:22 151 3 gusting 3 2.8
2017-Jan-21 07:17 103 0 gusting 3 2.8
2017-Jan-21 07:12 103 0 gusting 6 3.3
2017-Jan-21 07:07 103 3.3
2017-Jan-21 07:02 103 3.3
2017-Jan-21 06:57 106 3 gusting 6 3.3
2017-Jan-21 06:52 110 2 gusting 6 2.8
2017-Jan-21 06:47 098 2 gusting 6 2.2
2017-Jan-21 06:42 154 3 gusting 5 1.7
2017-Jan-21 06:37 157 2 gusting 5 1.7
2017-Jan-21 06:32 157 4 gusting 12 2.2
2017-Jan-21 06:27 157 2 gusting 12 2.8
2017-Jan-21 06:22 138 2 gusting 12 3.3
2017-Jan-21 06:17 138 2 gusting 12 3.9
2017-Jan-21 06:12 106 11 gusting 12 3.9
2017-Jan-21 06:07 115 2 gusting 12 3.9
2017-Jan-21 06:02 118 2 gusting 10 3.9
2017-Jan-21 05:57 111 6 gusting 10 3.9
2017-Jan-21 05:52 121 10 gusting 11 3.9
2017-Jan-21 05:47 116 7 gusting 11 3.9
2017-Jan-21 05:42 117 6 gusting 11 3.9
2017-Jan-21 05:37 096 6 gusting 11 3.9
2017-Jan-21 05:32 115 4 gusting 13 3.9
2017-Jan-21 05:27 116 4 gusting 13 3.9
2017-Jan-21 05:22 127 1 gusting 13 3.9
2017-Jan-21 05:17 069 1 gusting 13 3.3
2017-Jan-21 05:12 123 6 gusting 7 3.3
2017-Jan-21 05:07 119 6 gusting 7 2.8
2017-Jan-21 05:02 133 5 gusting 6 2.2
2017-Jan-21 04:57 117 6 gusting 6 2.2
2017-Jan-21 04:52 138 5 gusting 6 1.7
2017-Jan-21 04:47 144 1 gusting 6 1.7
2017-Jan-21 04:42 148 2 gusting 6 1.7
2017-Jan-21 04:37 149 6 gusting 6 1.7
2017-Jan-21 04:32 150 3 gusting 8 1.7
2017-Jan-21 04:27 155 4 gusting 8 1.7
2017-Jan-21 04:22 153 5 gusting 7 1.7
2017-Jan-21 04:17 136 3 gusting 7 1.7
2017-Jan-21 04:12 128 5 gusting 9 1.7
2017-Jan-21 04:07 139 6 gusting 9 1.7
2017-Jan-21 04:02 150 4 gusting 8 1.7
2017-Jan-21 03:57 158 7 gusting 8 1.7
2017-Jan-21 03:52 152 5 gusting 7 1.7
2017-Jan-21 03:47 138 5 gusting 7 1.7
2017-Jan-21 03:42 136 7 gusting 8 1.7
2017-Jan-21 03:37 144 6 gusting 8 1.7
2017-Jan-21 03:32 148 5 gusting 6 2.2
2017-Jan-21 03:27 148 6 gusting 6 2.2
2017-Jan-21 03:22 142 4 gusting 6 2.2
2017-Jan-21 03:17 141 2 gusting 6 2.2
2017-Jan-21 03:12 142 4 gusting 6 2.2
2017-Jan-21 03:07 142 1 gusting 6 2.2
2017-Jan-21 03:02 142 2 gusting 6 2.2
2017-Jan-21 02:57 142 6 gusting 6 2.2
2017-Jan-21 02:52 144 4 gusting 6 2.2
2017-Jan-21 02:47 147 6 gusting 6 2.2
2017-Jan-21 02:42 154 3 gusting 5 2.2
2017-Jan-21 02:37 154 4 gusting 5 2.2
2017-Jan-21 02:32 155 1 gusting 6 2.2
2017-Jan-21 02:27 155 2 gusting 6 2.2
2017-Jan-21 02:22 155 3 gusting 6 2.2
2017-Jan-21 02:17 156 3 gusting 6 2.2
2017-Jan-21 02:12 157 4 gusting 7 2.2
2017-Jan-21 02:07 155 4 gusting 7 2.2
2017-Jan-21 02:02 142 3 gusting 9 2.8
2017-Jan-21 01:57 144 4 gusting 9 2.2
2017-Jan-21 01:52 150 4 gusting 7 2.2
2017-Jan-21 01:47 144 5 gusting 7 2.2
2017-Jan-21 01:42 153 6 gusting 7 2.8
2017-Jan-21 01:37 149 4 gusting 7 2.8
2017-Jan-21 01:32 136 6 gusting 8 2.8
2017-Jan-21 01:27 149 5 gusting 8 2.8
2017-Jan-21 01:22 155 5 gusting 8 2.8
2017-Jan-21 01:17 160 7 gusting 8 2.8
2017-Jan-21 01:12 135 5 gusting 8 2.8
2017-Jan-21 01:07 142 6 gusting 8 2.8
2017-Jan-21 01:02 144 6 gusting 9 2.8
2017-Jan-21 00:57 153 6 gusting 9 2.8
2017-Jan-21 00:52 159 5 gusting 8 2.8
2017-Jan-21 00:47 180 6 gusting 8 3.3
2017-Jan-21 00:42 143 3 gusting 6 3.3
2017-Jan-21 00:37 128 6 gusting 6 3.3
2017-Jan-21 00:32 142 4 gusting 9 3.3
2017-Jan-21 00:27 148 3 gusting 9 3.3
2017-Jan-21 00:22 149 4 gusting 7 3.3
2017-Jan-21 00:17 138 6 gusting 7 3.3
2017-Jan-21 00:12 150 4 gusting 7 3.3
2017-Jan-21 00:07 151 6 gusting 7 3.3
2017-Jan-21 00:02 142 2 gusting 8 3.3
2017-Jan-20 23:57 153 6 gusting 8 3.3
2017-Jan-20 23:52 144 5 gusting 7 3.3
2017-Jan-20 23:47 144 5 gusting 7 3.3
2017-Jan-20 23:42 142 3 gusting 9 3.3
2017-Jan-20 23:37 146 6 gusting 9 3.3
2017-Jan-20 23:32 145 3 gusting 7 3.3
2017-Jan-20 23:27 146 5 gusting 7 3.3
2017-Jan-20 23:22 155 4 gusting 7 3.3
2017-Jan-20 23:17 146 4 gusting 7 3.3
2017-Jan-20 23:12 152 6 gusting 7 3.3
2017-Jan-20 23:07 164 2 gusting 7 3.9
2017-Jan-20 23:02 149 5 gusting 9 3.9
2017-Jan-20 22:57 143 3 gusting 9 3.9
2017-Jan-20 22:53 144 3 gusting 6 3.9
2017-Jan-20 22:48 144 5 gusting 6 3.9
2017-Jan-20 22:43 146 5 gusting 7 3.3
2017-Jan-20 22:38 130 4 gusting 7 3.3
2017-Jan-20 22:33 144 4 gusting 7 3.9
2017-Jan-20 22:28 160 6 gusting 7 3.9
2017-Jan-20 22:23 155 4 gusting 7 3.9
2017-Jan-20 22:18 142 5 gusting 7 3.9
2017-Jan-20 22:13 153 4 gusting 9 3.9
2017-Jan-20 22:08 162 5 gusting 9 3.9
2017-Jan-20 22:03 152 4 gusting 9 3.9
2017-Jan-20 21:58 157 4 gusting 9 3.9
2017-Jan-20 21:53 167 6 gusting 8 3.9
2017-Jan-20 21:48 158 6 gusting 8 3.9
2017-Jan-20 21:43 146 4 gusting 10 3.9
2017-Jan-20 21:38 146 3 gusting 10 3.9
2017-Jan-20 21:33 154 6 gusting 11 3.9
2017-Jan-20 21:28 148 7 gusting 11 3.9
2017-Jan-20 21:23 139 8 gusting 11 3.9
2017-Jan-20 21:18 154 6 gusting 11 3.9
2017-Jan-20 21:13 148 7 gusting 9 3.9
2017-Jan-20 21:08 137 7 gusting 9 3.9
2017-Jan-20 21:03 149 4 gusting 9 3.9
2017-Jan-20 20:58 153 4 gusting 9 3.9
2017-Jan-20 20:53 144 3 gusting 6 3.9
2017-Jan-20 20:48 142 3 gusting 6 3.9
2017-Jan-20 20:43 146 4 gusting 7 4.4
2017-Jan-20 20:38 152 5 gusting 7 4.4
2017-Jan-20 20:33 148 4 gusting 6 4.4
2017-Jan-20 20:28 135 3 gusting 6 4.4
2017-Jan-20 20:23 127 3 gusting 10 4.4
2017-Jan-20 20:18 164 4 gusting 10 4.4
2017-Jan-20 20:13 170 4 gusting 16 5.0
2017-Jan-20 20:08 142 4 gusting 16 5.0
2017-Jan-20 20:03 124 5 gusting 13 5.6
2017-Jan-20 19:58 136 5 gusting 13 5.6
2017-Jan-20 19:53 130 8 gusting 16 5.6
2017-Jan-20 19:48 112 6 gusting 16 5.6
2017-Jan-20 19:43 095 4 gusting 14 5.6
2017-Jan-20 19:38 117 2 gusting 14 5.6
2017-Jan-20 19:33 101 13 gusting 12 5.6
2017-Jan-20 19:28 121 8 gusting 12 5.6
2017-Jan-20 19:23 089 5 gusting 17 5.6
2017-Jan-20 19:18 103 8 gusting 17 5.6
2017-Jan-20 19:13 092 11 gusting 15 5.6
2017-Jan-20 19:08 109 4 gusting 15 5.6
2017-Jan-20 19:03 115 3 gusting 17 5.6
2017-Jan-20 18:58 093 5 gusting 17 5.6
2017-Jan-20 18:53 094 2 gusting 13 5.6
2017-Jan-20 18:48 089 6 gusting 13 5.6
2017-Jan-20 18:43 109 7 gusting 10 5.6
2017-Jan-20 18:38 098 8 gusting 10 5.6
2017-Jan-20 18:33 100 6 gusting 9 5.6
2017-Jan-20 18:28 084 4 gusting 9 5.6
2017-Jan-20 18:23 065 6 gusting 9 5.6
2017-Jan-20 18:18 092 0 gusting 9 6.1
2017-Jan-20 18:12 082 2 gusting 12 6.1
2017-Jan-20 18:07 103 7 gusting 12 6.1
2017-Jan-20 18:02 098 1 gusting 12 6.1
2017-Jan-20 17:57 074 3 gusting 12 6.1
2017-Jan-20 17:52 094 2 gusting 12 6.1
2017-Jan-20 17:47 094 5 gusting 12 6.1
2017-Jan-20 17:43 074 4 gusting 9 6.1
2017-Jan-20 17:38 088 2 gusting 9 6.1
2017-Jan-20 17:33 105 1 gusting 8 6.1
2017-Jan-20 17:28 111 1 gusting 8 6.1
2017-Jan-20 17:22 100 1 gusting 9 6.1
2017-Jan-20 17:17 132 2 gusting 9 6.1
2017-Jan-20 17:12 097 2 gusting 13 6.7
2017-Jan-20 17:07 103 3 gusting 13 6.7
2017-Jan-20 17:02 092 2 gusting 13 6.7
2017-Jan-20 16:57 049 2 gusting 13 6.7
2017-Jan-20 16:52 114 1 gusting 11 6.7
2017-Jan-20 16:47 076 3 gusting 11 6.7
2017-Jan-20 16:42 086 2 gusting 11 6.7
2017-Jan-20 16:37 073 2 gusting 11 7.2
2017-Jan-20 16:32 066 1 gusting 9 7.2
2017-Jan-20 16:27 079 2 gusting 9 7.2
2017-Jan-20 16:22 104 2 gusting 13 7.2
2017-Jan-20 16:17 107 4 gusting 13 7.2
2017-Jan-20 16:12 099 0 gusting 9 7.8
2017-Jan-20 16:07 123 1 gusting 9 7.8
2017-Jan-20 16:02 082 0 gusting 10 7.8
2017-Jan-20 15:57 119 4 gusting 10 7.8
2017-Jan-20 15:52 121 0 gusting 9 7.8
2017-Jan-20 15:47 098 4 gusting 9 8.3
2017-Jan-20 15:42 093 4 gusting 7 8.3
2017-Jan-20 15:37 096 2 gusting 7 8.3
2017-Jan-20 15:32 100 2 gusting 10 8.3
2017-Jan-20 15:27 094 4 gusting 10 8.3
2017-Jan-20 15:22 107 1 gusting 8 8.9
2017-Jan-20 15:17 086 4 gusting 8 8.9
2017-Jan-20 15:12 105 4 gusting 8 8.9
2017-Jan-20 15:07 094 1 gusting 8 8.9
2017-Jan-20 15:02 094 4 gusting 9 8.9
2017-Jan-20 14:57 099 6 gusting 9 8.9
2017-Jan-20 14:52 114 0 gusting 12 8.9
2017-Jan-20 14:47 096 2 gusting 12 9.4
2017-Jan-20 14:42 058 3 gusting 12 9.4
2017-Jan-20 14:37 090 1 gusting 12 9.4
2017-Jan-20 14:32 078 6 gusting 13 9.4
2017-Jan-20 14:27 102 2 gusting 13 9.4
2017-Jan-20 14:22 109 8 gusting 13 9.4
2017-Jan-20 14:17 099 1 gusting 13 9.4
2017-Jan-20 14:12 119 6 gusting 13 9.4
2017-Jan-20 14:07 105 6 gusting 13 9.4
2017-Jan-20 14:02 123 10 gusting 13 9.4
2017-Jan-20 13:57 129 6 gusting 13 9.4
2017-Jan-20 13:52 119 1 gusting 14 9.4
2017-Jan-20 13:47 099 6 gusting 14 9.4
2017-Jan-20 13:42 088 7 gusting 13 9.4
2017-Jan-20 13:37 096 2 gusting 13 9.4
2017-Jan-20 13:32 102 0 gusting 14 9.4
2017-Jan-20 13:27 103 6 gusting 14 9.4
2017-Jan-20 13:22 110 9 gusting 13 9.4
2017-Jan-20 13:17 100 7 gusting 13 10.0
2017-Jan-20 13:12 101 4 gusting 13 10.0
2017-Jan-20 13:07 134 5 gusting 13 10.0
2017-Jan-20 13:02 078 6 gusting 12 9.4
2017-Jan-20 12:57 097 4 gusting 12 9.4
2017-Jan-20 12:52 092 6 gusting 14 9.4
2017-Jan-20 12:47 099 4 gusting 14 9.4
2017-Jan-20 12:42 098 5 gusting 14 9.4
2017-Jan-20 12:37 054 4 gusting 14 9.4
2017-Jan-20 12:32 100 5 gusting 11 9.4
2017-Jan-20 12:27 121 7 gusting 11 9.4
2017-Jan-20 12:22 113 7 gusting 12 9.4
2017-Jan-20 12:17 094 7 gusting 12 9.4
2017-Jan-20 12:12 105 4 gusting 13 9.4
2017-Jan-20 12:07 086 4 gusting 13 9.4
2017-Jan-20 12:02 081 2 gusting 12 8.9
2017-Jan-20 11:57 086 6 gusting 12 9.4
2017-Jan-20 11:52 100 1 gusting 16 8.9
2017-Jan-20 11:47 111 6 gusting 16 8.9
2017-Jan-20 11:42 109 7 gusting 17 8.9
2017-Jan-20 11:37 126 6 gusting 17 8.9
2017-Jan-20 11:32 115 6 gusting 16 8.9
2017-Jan-20 11:27 113 8 gusting 16 8.3
2017-Jan-20 11:22 097 13 gusting 14 8.9
2017-Jan-20 11:17 107 13 gusting 14 8.9
2017-Jan-20 11:12 107 6 gusting 19 8.3
2017-Jan-20 11:07 101 5 gusting 19 8.3
2017-Jan-20 11:02 067 2 gusting 17 8.3
2017-Jan-20 10:57 054 2 gusting 17 8.3
2017-Jan-20 10:52 114 13 gusting 13 8.3
2017-Jan-20 10:47 090 1 gusting 13 8.3
2017-Jan-20 10:42 096 9 gusting 14 8.3
2017-Jan-20 10:37 095 4 gusting 14 8.3
2017-Jan-20 10:32 107 6 gusting 11 8.3
2017-Jan-20 10:27 094 4 gusting 11 8.3
2017-Jan-20 10:22 114 6 gusting 15 8.3
2017-Jan-20 10:17 098 4 gusting 15 8.3
2017-Jan-20 10:12 120 6 gusting 19 7.8
2017-Jan-20 10:07 094 6 gusting 19 7.8
2017-Jan-20 10:02 106 6 gusting 19 7.8
2017-Jan-20 09:57 113 9 gusting 19 7.8
2017-Jan-20 09:52 107 6 gusting 13 7.8
2017-Jan-20 09:47 092 5 gusting 13 7.2
2017-Jan-20 09:42 113 4 gusting 19 7.2
2017-Jan-20 09:37 102 1 gusting 19 7.2
2017-Jan-20 09:32 116 3 gusting 21 6.7
2017-Jan-20 09:27 110 9 gusting 21 6.7
2017-Jan-20 09:22 096 12 gusting 16 6.7
2017-Jan-20 09:17 096 8 gusting 16 6.7
2017-Jan-20 09:12 086 7 gusting 13 6.7
2017-Jan-20 09:07 099 9 gusting 13 6.7
2017-Jan-20 09:02 113 6 gusting 16 6.7
2017-Jan-20 08:57 069 6 gusting 16 6.1
2017-Jan-20 08:52 104 6 gusting 15 6.1
2017-Jan-20 08:47 131 4 gusting 15 6.1
2017-Jan-20 08:42 102 7 gusting 14 6.1
2017-Jan-20 08:37 069 4 gusting 14 6.1
2017-Jan-20 08:32 083 5 gusting 16 6.1
2017-Jan-20 08:27 101 7 gusting 16 5.6
2017-Jan-20 08:22 101 1 gusting 15 5.6
2017-Jan-20 08:17 103 2 gusting 15 5.6
2017-Jan-20 08:12 098 12 gusting 18 5.6
2017-Jan-20 08:07 105 8 gusting 18 5.6
2017-Jan-20 08:02 100 1 gusting 15 5.0
2017-Jan-20 07:57 090 6 gusting 15 5.0
2017-Jan-20 07:52 107 6 gusting 17 5.0
2017-Jan-20 07:47 103 6 gusting 17 5.0
2017-Jan-20 07:42 115 6 gusting 19 5.0
2017-Jan-20 07:37 112 4 gusting 19 4.4
2017-Jan-20 07:32 109 7 gusting 13 4.4
2017-Jan-20 07:23 110 6 gusting 13 4.4
2017-Jan-20 07:11 121 8 gusting 13 4.4
2017-Jan-20 07:05 113 11 gusting 13 4.4
2017-Jan-20 07:00 109 9 gusting 13 4.4
2017-Jan-20 06:55 099 6 gusting 13 4.4
2017-Jan-20 06:50 111 6 gusting 14 4.4
2017-Jan-20 06:45 120 11 gusting 14 4.4
2017-Jan-20 06:40 118 6 gusting 14 4.4
2017-Jan-20 06:35 088 6 gusting 14 4.4
2017-Jan-20 06:30 120 10 gusting 13 4.4
2017-Jan-20 06:25 117 7 gusting 13 4.4
2017-Jan-20 06:20 109 0 gusting 11 4.4
2017-Jan-20 06:15 115 3 gusting 11 4.4
2017-Jan-20 06:10 119 4 gusting 13 4.4
2017-Jan-20 06:05 106 4 gusting 13 4.4
2017-Jan-20 06:00 082 6 gusting 11 4.4
2017-Jan-20 05:55 101 4 gusting 11 4.4
2017-Jan-20 05:50 123 9 gusting 13 4.4
2017-Jan-20 05:45 107 3 gusting 13 4.4
2017-Jan-20 05:40 114 6 gusting 14 4.4
2017-Jan-20 05:35 107 9 gusting 14 4.4
2017-Jan-20 05:30 102 4 gusting 13 4.4
2017-Jan-20 05:25 101 12 gusting 13 4.4
2017-Jan-20 05:20 115 6 gusting 14 4.4
2017-Jan-20 05:15 089 2 gusting 14 4.4
2017-Jan-20 05:10 105 6 gusting 14 4.4
2017-Jan-20 05:05 100 5 gusting 14 4.4
2017-Jan-20 05:00 108 8 gusting 13 4.4
2017-Jan-20 04:55 113 4 gusting 13 4.4
2017-Jan-20 04:50 101 8 gusting 16 4.4
2017-Jan-20 04:45 108 2 gusting 16 4.4
2017-Jan-20 04:40 121 10 gusting 13 4.4
2017-Jan-20 04:35 101 12 gusting 13 4.4
2017-Jan-20 04:30 094 6 gusting 14 4.4
2017-Jan-20 04:25 105 3 gusting 14 4.4
2017-Jan-20 04:20 105 7 gusting 12 4.4
2017-Jan-20 04:15 087 11 gusting 12 4.4
2017-Jan-20 04:10 109 6 gusting 12 4.4
2017-Jan-20 04:05 134 6 gusting 12 4.4
2017-Jan-20 04:00 107 6 gusting 13 4.4
2017-Jan-20 03:55 106 1 gusting 13 4.4
2017-Jan-20 03:50 110 6 gusting 14 4.4
2017-Jan-20 03:45 120 3 gusting 14 4.4
2017-Jan-20 03:40 102 8 gusting 13 4.4
2017-Jan-20 03:35 110 9 gusting 13 4.4
2017-Jan-20 03:30 126 6 gusting 13 4.4
2017-Jan-20 03:25 118 4 gusting 13 4.4
2017-Jan-20 03:20 130 6 gusting 14 4.4
2017-Jan-20 03:15 120 6 gusting 14 5.0
2017-Jan-20 03:10 090 5 gusting 15 5.0
2017-Jan-20 03:05 109 7 gusting 15 4.4
2017-Jan-20 03:00 142 6 gusting 13 5.0
2017-Jan-20 02:55 114 7 gusting 13 5.0
2017-Jan-20 02:50 115 9 gusting 15 5.0
2017-Jan-20 02:45 103 4 gusting 15 5.0
2017-Jan-20 02:40 125 4 gusting 13 5.0
2017-Jan-20 02:35 111 8 gusting 13 5.0
2017-Jan-20 02:30 098 4 gusting 15 5.0
2017-Jan-20 02:25 099 4 gusting 15 5.0
2017-Jan-20 02:20 117 6 gusting 13 5.0
2017-Jan-20 02:15 094 9 gusting 13 5.0
2017-Jan-20 02:10 149 4 gusting 13 5.0
2017-Jan-20 02:05 131 6 gusting 13 5.0
2017-Jan-20 02:00 142 4 gusting 14 5.0
2017-Jan-20 01:55 135 5 gusting 14 5.0
2017-Jan-20 01:50 106 9 gusting 13 5.0
2017-Jan-20 01:45 094 12 gusting 13 5.0
2017-Jan-20 01:40 104 9 gusting 14 5.0
2017-Jan-20 01:35 103 7 gusting 14 5.0
2017-Jan-20 01:30 116 9 gusting 16 5.0
2017-Jan-20 01:25 118 7 gusting 16 5.0
2017-Jan-20 01:20 126 7 gusting 11 5.0
2017-Jan-20 01:15 080 7 gusting 11 5.0
2017-Jan-20 01:10 109 6 gusting 13 5.0
2017-Jan-20 01:05 113 6 gusting 13 5.0
2017-Jan-20 01:00 119 6 gusting 13 5.0
2017-Jan-20 00:55 115 6 gusting 13 5.0
2017-Jan-20 00:50 114 6 gusting 19 5.0
2017-Jan-20 00:45 115 4 gusting 19 5.0
2017-Jan-20 00:40 108 7 gusting 12 5.0
2017-Jan-20 00:35 115 8 gusting 12 5.0
2017-Jan-20 00:30 113 9 gusting 15 5.0
2017-Jan-20 00:25 130 7 gusting 15 5.0
2017-Jan-20 00:20 106 0 gusting 17 5.0
2017-Jan-20 00:15 135 2 gusting 17 5.6
2017-Jan-20 00:10 098 9 gusting 18 5.6
2017-Jan-20 00:05 112 6 gusting 18 5.6
2017-Jan-20 00:00 048 6 gusting 13 5.6
2017-Jan-19 23:55 115 7 gusting 13 5.0
2017-Jan-19 23:50 107 2 gusting 15 5.0
2017-Jan-19 23:45 063 3 gusting 15 5.0
2017-Jan-19 23:40 110 9 gusting 12 5.0
2017-Jan-19 23:35 111 2 gusting 12 5.0
2017-Jan-19 23:30 122 6 gusting 9 5.0
2017-Jan-19 23:25 110 6 gusting 9 5.0
2017-Jan-19 23:20 083 4 gusting 12 5.0
2017-Jan-19 23:15 107 6 gusting 12 5.0
2017-Jan-19 23:10 119 7 gusting 11 5.0
2017-Jan-19 23:05 084 4 gusting 11 5.0
2017-Jan-19 23:00 114 6 gusting 13 5.0
2017-Jan-19 22:55 121 2 gusting 13 5.0
2017-Jan-19 22:51 084 9 gusting 13 5.0
2017-Jan-19 22:46 095 6 gusting 13 5.0
2017-Jan-19 22:41 125 7 gusting 13 5.0
2017-Jan-19 22:36 112 6 gusting 13 5.0
2017-Jan-19 22:31 105 11 gusting 13 5.0
2017-Jan-19 22:26 117 7 gusting 13 5.0
2017-Jan-19 22:21 103 9 gusting 15 5.0
2017-Jan-19 22:16 119 9 gusting 15 5.0
2017-Jan-19 22:11 112 6 gusting 13 5.6
2017-Jan-19 22:06 103 6 gusting 13 5.0
2017-Jan-19 22:01 111 4 gusting 13 5.0
2017-Jan-19 21:56 134 1 gusting 13 5.6
2017-Jan-19 21:51 071 3 gusting 14 5.0
2017-Jan-19 21:46 149 5 gusting 14 5.0
2017-Jan-19 21:41 127 7 gusting 17 5.0
2017-Jan-19 21:36 140 4 gusting 17 5.0
2017-Jan-19 21:31 107 7 gusting 13 5.6
2017-Jan-19 21:26 120 4 gusting 13 5.6
2017-Jan-19 21:21 124 6 gusting 13 5.0
2017-Jan-19 21:16 129 9 gusting 13 5.6
2017-Jan-19 21:11 098 6 gusting 10 5.6
2017-Jan-19 21:06 128 3 gusting 10 5.0
2017-Jan-19 21:01 093 7 gusting 13 5.0
2017-Jan-19 20:56 112 7 gusting 13 5.0
2017-Jan-19 20:51 107 8 gusting 13 5.0
2017-Jan-19 20:46 115 4 gusting 13 5.0
2017-Jan-19 20:41 101 6 gusting 14 5.0
2017-Jan-19 20:36 113 6 gusting 14 5.0
2017-Jan-19 20:31 119 3 gusting 13 5.6
2017-Jan-19 20:26 083 7 gusting 13 5.6
2017-Jan-19 20:21 113 3 gusting 12 5.6
2017-Jan-19 20:16 105 6 gusting 12 5.6
2017-Jan-19 20:11 093 12 gusting 14 5.0
2017-Jan-19 20:06 146 3 gusting 14 5.0
2017-Jan-19 20:01 128 5 gusting 11 5.6
2017-Jan-19 19:56 115 7 gusting 11 5.6
2017-Jan-19 19:51 105 8 gusting 12 5.0
2017-Jan-19 19:46 108 4 gusting 12 5.6
2017-Jan-19 19:41 103 6 gusting 18 5.6
2017-Jan-19 19:36 096 7 gusting 18 5.6
2017-Jan-19 19:31 095 5 gusting 17 5.6
2017-Jan-19 19:26 110 6 gusting 17 5.6
2017-Jan-19 19:21 109 6 gusting 26 5.6
2017-Jan-19 19:16 111 6 gusting 26 5.6
2017-Jan-19 19:11 105 12 gusting 20 5.6
2017-Jan-19 19:06 115 12 gusting 20 5.6
2017-Jan-19 19:01 108 11 gusting 21 5.6